Flag for United Kingdom

Past Weather in Plymouth, England, United Kingdom — Yesterday and Last 2 Weeks

Now
58 °F

Light rain. Cloudy.


Feels Like: 55 °F
Forecast: 62 / 57 °F
Wind: 12 mph from Southwest

Location: Plymouth

Current Time: Jul 8, 2020 at 7:48:43 am

Latest Report: Jul 8, 2020 at 7:00 am


Visibility: 1 mi

Pressure: 30.02 "Hg

Humidity: 100%

Dew Point: 58 °F

Location of PlymouthLocation

Past Weather in Plymouth — Graph

°F

Plymouth Temperature Yesterday

Maximum temperature yesterday: 63 °F (at 12:00 pm)
Minimum temperature yesterday: 48 °F (at 5:00 am)
Average temperature yesterday: 57 °F

High & Low Weather Summary for the Past Weeks

 TemperatureHumidityPressure
High82 °F (Jun 25, 12:00 pm)100% (Jun 26, 6:00 am)30.30 "Hg (Jun 26, 6:00 am)
Low48 °F (Jul 7, 5:00 am)41% (Jun 24, 6:00 pm)29.60 "Hg (Jun 27, 6:00 am)
Average60 °F83%29.95 "Hg
* Reported Jun 23 6:00 am — Jul 8 6:00 am, Plymouth. Weather by CustomWeather, © 2020

Note: Actual official high and low records may vary slightly from our data, if they occured in-between our weather recording intervals... More about our weather records

Plymouth Weather History for the Previous 24 Hours

Scroll right to see more
 ConditionsComfort  
Time TempWeatherWind HumidityBarometerVisibility
6:00 am
Wed, Jul 8
57 °FDrizzle. Cloudy.12 mph100%30.02 "Hg1 mi
5:00 am57 °FCool.14 mph99%30.02 "Hg3 mi
4:00 am57 °FDrizzle. Overcast.15 mph99%30.03 "Hg2 mi
3:00 am57 °FLight rain. Overcast.12 mph99%30.05 "Hg1 mi
2:00 am57 °FFog.10 mph98%30.07 "Hg4 mi
1:00 am57 °FFog.13 mph96%30.08 "Hg6 mi
12:00 am58 °FCool.12 mph94%30.09 "Hg8 mi
11:00 pm
Tue, Jul 7
57 °FCool.13 mph94%30.10 "Hg8 mi
10:00 pm57 °FCool.13 mph92%30.10 "Hg8 mi
9:00 pm58 °FCool.13 mph90%30.11 "Hg9 mi
8:00 pm58 °FCool.13 mph89%30.12 "Hg9 mi
7:00 pm58 °FCool.14 mph87%30.13 "Hg9 mi
6:00 pm59 °FCool.16 mph84%30.14 "Hg11 mi
5:00 pm61 °FCool.22 mph79%30.15 "Hg11 mi
4:00 pm62 °FMild.18 mph76%30.16 "Hg11 mi
3:00 pm61 °FCool.18 mph76%30.17 "Hg12 mi
2:00 pm63 °FMild.16 mph76%30.18 "Hg13 mi
1:00 pm62 °FCool.15 mph75%30.19 "Hg12 mi
12:00 pm63 °FMild.14 mph76%30.20 "Hg13 mi
11:00 am61 °FCool.13 mph78%30.21 "Hg12 mi
10:00 am60 °FCool.8 mph83%30.21 "Hg11 mi
9:00 am58 °FCool.7 mph93%30.22 "Hg11 mi
8:00 am55 °FCool.2 mph100%30.22 "Hg8 mi
7:00 am51 °FCool.2 mph99%30.23 "Hg8 mi
Weather by CustomWeather, © 2020

See weather overview